Wind_Speed
41 37 28 24 20 29 30 26 24 14 22 27 21 16 13 7 18 19 21 26 21 24 13 20 26 32 29 27 27 26 30 30 28 28 25 25 25 26 26 28 23 22 21 18
43 36 31 32 34 33 33 29 27 22 26 27 20 19 14 10 19 19 24 29 27 29 26 23 24 28 30 27 25 28 30 28 26 24 25 23 23 24 24 24 18 19 20 12
44 36 37 35 37 39 37 32 19 20 27 30 22 24 22 17 20 23 28 28 28 27 29 27 25 31 25 23 25 28 25 24 23 22 24 21 21 24 24 18 19 20 17 14
49 46 42 42 42 39 42 25 21 23 27 26 24 26 22 21 22 25 24 20 21 23 27 27 31 25 20 22 25 22 22 22 19 21 20 20 21 23 22 20 19 19 16 10
49 47 44 37 36 37 34 27 25 23 27 27 29 30 15 19 19 21 15 12 13 23 27 29 18 20 17 21 20 21 20 19 17 20 17 17 19 20 21 20 19 18 15 9
52 47 44 41 39 38 30 33 28 28 32 33 21 31 8 9 11 9 9 10 16 21 24 17 17 16 17 20 20 19 18 16 17 18 14 16 18 20 21 21 16 15 15 8
45 43 40 39 37 40 40 37 37 36 38 30 19 20 6 6 9 12 12 13 16 20 27 19 20 16 18 16 19 18 15 14 15 11 12 14 18 20 20 16 14 13 15 5
33 35 34 29 34 40 42 40 39 37 31 21 18 17 12 3 9 10 15 13 17 21 20 17 16 16 14 16 15 15 11 10 10 9 11 14 17 18 18 12 11 11 11 6
35 36 31 28 27 34 37 37 27 30 24 23 17 17 15 12 12 11 15 17 17 22 22 19 17 14 10 12 11 11 9 11 9 8 11 13 15 17 14 11 9 11 11 9
38 35 29 24 29 30 30 30 34 34 24 25 21 20 15 16 14 12 12 15 19 25 19 17 15 10 12 6 8 9 7 8 7 7 9 10 13 16 13 11 12 16 12 12
45 43 35 34 32 30 34 37 40 29 26 22 16 16 13 15 16 12 13 16 20 23 16 14 10 8 6 4 6 7 6 7 7 6 9 10 12 15 14 12 16 16 13 13
48 48 39 32 32 28 27 31 32 30 31 25 19 16 17 18 18 17 11 15 18 21 12 11 6 8 4 2 5 7 7 6 8 7 9 12 11 15 16 11 14 18 17 18
50 52 47 41 40 37 38 36 35 32 31 25 22 18 18 18 14 15 11 9 17 18 10 10 6 6 3 2 4 7 9 7 9 8 11 13 13 16 17 11 11 15 15 18
62 58 55 50 45 40 41 39 36 38 36 31 22 21 22 17 16 13 8 4 13 19 9 9 5 6 5 1 3 5 7 7 9 10 8 11 12 14 16 12 11 15 17 19
67 61 56 50 46 42 38 36 36 36 29 31 22 22 22 15 15 12 13 10 9 15 8 7 4 5 4 3 0 3 3 4 8 7 8 9 11 14 16 14 11 20 18 23
69 63 56 52 50 46 45 42 37 32 31 23 24 27 18 21 20 21 19 12 6 9 7 5 4 3 3 3 2 3 2 3 5 7 10 10 9 13 17 18 20 18 16 17
70 67 61 57 55 48 54 49 43 37 33 29 28 24 23 26 24 21 20 6 1 10 7 6 6 1 2 2 3 3 3 4 6 7 9 10 11 15 18 16 16 17 16 18
69 67 64 60 56 62 56 49 43 39 34 30 28 23 25 26 24 24 18 12 3 7 9 7 5 4 1 2 1 3 4 5 6 8 10 13 12 15 19 20 20 22 22 22
68 69 65 64 61 60 58 52 49 45 40 33 29 27 29 30 28 27 20 10 4 3 10 9 9 7 4 3 2 3 4 3 5 8 12 16 14 14 17 19 18 19 19 19
64 66 65 67 60 63 59 53 49 40 39 39 32 31 30 31 31 23 16 9 5 6 10 11 12 11 7 4 4 3 5 4 5 7 11 15 15 15 15 17 17 19 19 18
67 64 64 61 58 62 58 54 49 51 46 36 35 30 32 31 23 20 21 16 9 9 9 15 13 13 13 7 6 6 5 7 5 7 9 12 13 14 14 13 12 13 14 15
67 64 64 58 53 59 60 59 51 46 44 37 34 29 25 21 20 24 23 20 16 7 5 13 14 16 13 10 8 8 6 9 8 7 7 9 10 10 11 11 12 14 14 16
64 66 68 64 45 54 55 61 64 53 46 44 39 35 27 23 20 18 21 22 21 10 7 15 18 17 16 13 11 11 8 9 12 9 8 8 8 9 10 11 12 13 15 15
56 66 67 66 63 56 54 57 65 61 57 46 40 36 33 31 27 25 24 23 24 15 13 13 22 22 16 14 14 14 13 11 14 13 12 11 10 10 10 10 13 12 11 11
43 59 71 69 67 59 52 55 62 57 57 53 46 42 39 36 31 30 29 26 23 19 17 16 19 24 21 19 15 18 18 15 14 15 15 13 12 11 11 11 11 11 10 8
36 60 72 71 68 61 55 50 57 62 56 53 50 46 44 37 31 28 29 31 29 22 21 21 20 22 25 25 18 19 19 19 16 16 16 17 16 14 13 12 11 11 10 8
Wind_Direction
217 227 227 220 248 269 257 251 240 198 200 213 218 240 252 290 273 280 299 311 313 309 309 324 330 317 306 301 305 310 312 313 315 315 319 318 320 327 322 328 320 318 316 311
221 235 234 244 254 256 250 238 235 203 206 239 233 246 251 252 276 290 299 300 301 291 304 316 323 307 305 306 309 309 307 308 313 314 316 317 320 326 327 330 331 332 322 310
236 241 242 240 243 245 245 240 236 226 214 236 251 256 248 259 270 283 293 292 280 290 300 310 304 308 302 309 308 307 305 306 313 315 314 318 322 329 334 336 335 330 333 321
239 237 233 232 231 234 233 242 235 230 221 239 252 259 250 257 273 281 268 283 309 328 321 314 309 302 309 312 311 309 308 309 315 312 317 318 328 332 345 346 340 339 340 327
240 241 242 241 237 240 241 235 235 226 232 240 222 248 245 257 254 264 274 305 338 348 328 312 301 298 308 316 314 312 306 311 315 312 315 318 329 330 336 339 340 350 352 346
239 240 237 237 233 228 226 224 223 223 229 235 213 232 203 230 258 257 290 11 355 344 333 306 307 305 309 316 314 307 310 311 313 311 318 329 330 332 342 343 349 351 0 14
222 223 221 221 221 211 213 214 214 221 231 236 211 239 172 224 246 274 315 351 332 320 323 312 314 314 310 313 312 307 313 316 318 314 330 331 339 342 342 344 1 2 17 20
221 214 215 216 212 211 218 217 224 223 225 233 229 238 163 189 251 275 296 343 330 334 329 325 318 311 316 318 310 310 324 331 324 332 345 341 348 351 350 360 10 19 32 43
218 212 215 215 220 213 218 229 228 223 220 236 226 231 199 210 247 273 316 346 324 319 322 335 327 312 317 316 312 316 337 341 316 341 347 356 2 4 358 15 29 37 33 72
223 222 210 212 205 213 221 220 206 214 209 221 217 218 224 249 266 290 326 328 321 326 330 324 326 315 317 313 324 323 337 343 350 341 355 16 16 12 22 53 42 50 58 74
215 219 215 203 208 212 210 210 211 211 220 220 224 217 224 246 262 287 306 318 312 338 324 321 323 316 301 326 333 353 15 9 1 2 17 28 29 25 42 70 50 53 61 83
203 217 215 211 213 212 218 222 226 222 220 216 220 187 216 234 245 260 289 304 320 332 322 310 302 319 284 335 348 32 33 15 23 32 54 47 45 41 48 71 65 64 83 93
196 204 210 201 208 199 209 210 222 226 219 215 220 192 209 212 223 244 276 334 315 323 315 310 294 320 262 288 17 51 39 42 35 52 65 57 54 46 40 56 75 78 91 94
201 201 204 204 209 216 211 208 210 220 222 219 209 188 226 232 234 256 290 342 309 330 307 301 290 324 245 267 36 68 56 52 43 40 68 53 54 39 35 47 92 103 109 100
206 208 208 197 207 213 217 219 215 217 219 220 195 211 226 247 254 263 260 271 310 312 293 295 281 328 265 255 10 89 80 37 30 41 58 62 52 53 53 63 110 110 93 110
201 206 206 199 201 208 215 215 218 217 223 223 201 214 215 236 242 248 261 279 316 284 293 277 251 322 300 249 211 110 80 66 48 58 68 73 55 68 77 90 95 96 100 86
197 200 202 203 199 200 214 214 213 214 219 223 213 210 214 222 239 250 252 275 216 254 281 268 241 251 298 274 218 150 108 81 74 73 88 77 80 89 92 97 97 98 96 97
198 196 200 205 197 201 213 213 216 220 216 218 222 205 225 230 239 251 259 273 233 229 257 268 230 221 251 275 253 183 131 97 87 83 96 98 94 91 93 93 94 97 95 93
199 197 197 205 204 208 210 211 216 216 215 215 218 207 206 223 235 244 247 258 265 232 245 260 227 223 206 265 298 229 169 116 104 96 104 111 111 101 95 95 96 97 96 94
200 199 195 203 201 208 211 207 215 219 227 223 215 212 204 209 226 239 246 236 242 238 235 243 240 223 236 227 277 273 199 162 129 117 118 121 122 117 109 99 93 96 98 102
201 203 196 204 198 206 207 201 212 215 216 215 215 219 207 210 225 244 243 247 235 229 233 231 247 235 231 229 241 255 214 177 153 141 135 131 134 126 116 103 96 96 96 92
200 202 197 207 202 202 202 202 210 212 213 218 215 209 209 217 224 230 242 246 253 245 260 223 228 239 217 227 214 236 222 191 174 157 153 149 148 139 127 111 104 105 105 103
195 199 199 203 204 209 203 197 207 211 217 218 214 221 221 233 233 233 233 238 251 241 230 215 224 239 232 221 203 217 216 200 190 183 173 160 154 150 138 128 125 121 113 108
182 193 200 201 205 212 213 202 205 209 217 218 220 218 226 227 230 234 243 241 243 235 218 214 227 235 223 221 206 204 211 203 195 191 183 181 169 161 156 148 142 137 128 121
166 177 196 198 203 210 215 211 210 208 210 219 222 226 229 230 229 228 233 239 244 237 212 215 229 238 232 227 218 206 209 205 204 203 190 191 189 185 178 168 158 153 146 137
172 182 195 200 202 204 212 210 209 210 208 214 218 220 223 222 218 232 232 232 238 234 208 208 224 238 236 231 223 212 209 213 209 214 210 204 205 205 201 198 198 196 193 191
Height
5770 5769 5770 5779 5785 5789 5790 5791 5794 5797 5797 5795 5796 5797 5799 5799 5802 5801 5802 5802 5801 5799 5798 5794 5789 5787 5783 5779 5774 5770 5766 5761 5756 5751 5746 5739 5733 5728 5722 5716 5711 5706 5701 5697
5759 5757 5771 5777 5779 5780 5782 5785 5789 5793 5793 5789 5793 5793 5793 5794 5796 5795 5797 5797 5796 5795 5792 5790 5788 5783 5779 5774 5770 5766 5761 5757 5752 5747 5742 5735 5730 5725 5719 5713 5708 5704 5698 5694
5750 5759 5765 5769 5771 5773 5777 5779 5787 5789 5790 5785 5788 5788 5788 5789 5791 5791 5793 5794 5793 5790 5788 5785 5782 5778 5773 5769 5766 5761 5757 5753 5749 5744 5738 5732 5727 5722 5716 5711 5707 5701 5696 5691
5738 5747 5752 5757 5761 5766 5767 5778 5780 5780 5783 5783 5784 5781 5782 5785 5788 5789 5790 5790 5791 5787 5783 5780 5777 5772 5769 5765 5761 5757 5753 5750 5746 5740 5734 5729 5724 5720 5715 5710 5706 5699 5693 5689
5729 5737 5744 5750 5758 5763 5766 5772 5773 5776 5776 5778 5780 5777 5782 5784 5784 5784 5785 5787 5785 5780 5777 5774 5770 5768 5765 5761 5758 5754 5750 5747 5742 5737 5731 5727 5723 5718 5714 5709 5703 5698 5692 5687
5719 5728 5734 5740 5745 5751 5763 5761 5765 5768 5768 5763 5773 5775 5778 5777 5778 5780 5783 5781 5777 5776 5773 5770 5767 5764 5761 5758 5755 5751 5748 5744 5738 5733 5729 5725 5721 5717 5713 5707 5702 5698 5692 5687
5707 5715 5724 5730 5734 5740 5746 5751 5753 5756 5755 5759 5768 5769 5770 5772 5775 5777 5777 5775 5774 5774 5770 5767 5764 5761 5758 5755 5752 5749 5745 5741 5735 5730 5728 5724 5720 5716 5712 5707 5702 5698 5693 5688
5706 5712 5716 5723 5727 5734 5736 5743 5746 5747 5752 5759 5760 5760 5767 5769 5770 5773 5772 5773 5773 5772 5768 5764 5761 5758 5755 5753 5750 5747 5743 5738 5733 5730 5727 5723 5720 5716 5711 5707 5702 5698 5693 5689
5696 5702 5712 5717 5724 5730 5733 5734 5747 5748 5751 5753 5758 5759 5762 5764 5765 5768 5769 5770 5771 5769 5763 5760 5758 5755 5753 5751 5749 5745 5741 5736 5732 5729 5726 5723 5720 5716 5711 5707 5703 5698 5694 5692
5691 5696 5705 5710 5714 5721 5726 5735 5735 5736 5741 5747 5752 5754 5757 5759 5761 5764 5765 5767 5768 5764 5759 5758 5755 5753 5752 5750 5748 5744 5740 5736 5731 5729 5727 5724 5721 5717 5712 5708 5705 5700 5696 5694
5676 5683 5692 5698 5705 5712 5716 5719 5726 5734 5739 5741 5747 5751 5755 5755 5758 5760 5763 5765 5764 5759 5757 5756 5753 5752 5750 5749 5747 5743 5739 5735 5732 5729 5727 5725 5722 5718 5713 5710 5707 5703 5700 5698
5663 5671 5683 5696 5702 5709 5713 5719 5724 5728 5732 5737 5741 5746 5749 5752 5755 5758 5761 5763 5759 5758 5756 5754 5752 5751 5749 5748 5746 5742 5738 5735 5733 5730 5728 5726 5723 5721 5717 5713 5711 5707 5705 5703
5645 5654 5672 5683 5690 5695 5701 5710 5716 5723 5728 5732 5737 5744 5744 5748 5751 5755 5759 5758 5756 5756 5754 5752 5751 5749 5748 5748 5745 5742 5739 5737 5734 5732 5730 5729 5726 5723 5720 5717 5714 5712 5711 5709
5636 5646 5657 5672 5685 5694 5697 5703 5710 5716 5720 5726 5732 5739 5740 5744 5748 5751 5754 5756 5756 5753 5753 5751 5750 5748 5747 5747 5745 5742 5740 5739 5736 5734 5732 5731 5728 5725 5723 5719 5717 5717 5716 5716
5630 5646 5655 5668 5678 5687 5695 5700 5704 5708 5717 5720 5730 5733 5736 5739 5742 5747 5751 5754 5754 5751 5751 5750 5749 5748 5746 5746 5745 5743 5741 5739 5737 5736 5734 5732 5730 5728 5726 5722 5720 5720 5721 5720
5624 5640 5648 5658 5668 5677 5684 5691 5698 5705 5712 5718 5724 5728 5734 5736 5739 5743 5747 5750 5752 5750 5750 5749 5749 5747 5746 5745 5745 5744 5742 5740 5739 5738 5736 5734 5733 5732 5731 5729 5727 5726 5726 5725
5615 5626 5638 5648 5660 5670 5669 5678 5689 5698 5706 5713 5717 5725 5730 5732 5735 5739 5743 5746 5748 5749 5749 5748 5748 5747 5746 5746 5745 5744 5743 5741 5740 5739 5738 5737 5736 5735 5735 5735 5733 5732 5731 5730
5603 5616 5628 5641 5651 5648 5660 5676 5685 5692 5700 5707 5713 5720 5724 5730 5732 5734 5737 5741 5746 5747 5746 5747 5748 5747 5747 5746 5745 5745 5744 5742 5741 5741 5741 5740 5740 5740 5739 5739 5738 5737 5737 5736
5596 5607 5620 5629 5636 5648 5654 5667 5674 5681 5690 5699 5707 5715 5719 5723 5727 5728 5733 5738 5742 5744 5744 5745 5746 5747 5747 5746 5746 5746 5745 5744 5743 5743 5743 5743 5744 5744 5743 5743 5744 5743 5742 5742
5592 5600 5611 5620 5628 5637 5651 5664 5671 5682 5685 5693 5701 5708 5714 5717 5719 5725 5730 5735 5739 5741 5742 5743 5744 5745 5746 5746 5746 5746 5746 5745 5744 5744 5745 5746 5747 5748 5748 5747 5748 5748 5748 5748
5585 5592 5607 5612 5620 5636 5648 5662 5668 5670 5680 5689 5696 5703 5708 5712 5720 5724 5726 5729 5734 5738 5740 5740 5741 5743 5744 5745 5746 5746 5746 5747 5746 5746 5747 5748 5750 5751 5752 5752 5752 5752 5752 5752
5578 5587 5601 5607 5618 5627 5633 5651 5656 5663 5671 5682 5690 5696 5701 5708 5713 5718 5721 5724 5728 5733 5735 5737 5739 5740 5742 5743 5744 5745 5746 5747 5748 5748 5748 5749 5751 5753 5753 5754 5754 5755 5755 5756
5568 5576 5591 5601 5609 5617 5626 5637 5646 5657 5665 5673 5681 5690 5698 5702 5708 5713 5716 5719 5722 5729 5731 5734 5736 5737 5739 5741 5742 5744 5745 5746 5747 5749 5750 5750 5751 5753 5755 5756 5756 5757 5758 5759
5552 5567 5578 5591 5598 5608 5618 5634 5638 5649 5659 5666 5674 5682 5690 5697 5703 5708 5711 5715 5718 5724 5728 5730 5732 5734 5737 5738 5739 5742 5744 5745 5746 5748 5750 5751 5752 5754 5755 5757 5758 5759 5760 5762
5537 5551 5565 5580 5591 5601 5612 5625 5633 5642 5652 5659 5666 5674 5682 5689 5695 5701 5705 5709 5714 5719 5723 5726 5728 5730 5733 5735 5737 5739 5741 5743 5745 5747 5749 5751 5752 5754 5755 5757 5759 5761 5762 5763
5530 5544 5557 5570 5584 5597 5606 5619 5625 5634 5645 5652 5658 5665 5672 5680 5687 5692 5698 5702 5707 5713 5718 5721 5723 5726 5729 5732 5734 5736 5738 5740 5743 5745 5747 5749 5751 5753 5755 5756 5758 5760 5762 5763